Location: Arroyo de Valdeoliva
(40.1604°N, 4.9878°W)
Time: 03:31:05
(UTC+00:00)

Hubble Space Telescope - Pass Details

Date: 11 December 2025
Orbit: 479 x 482 km, 28.5° (Epoch: 13 January)

Event Time Altitude Azimuth Distance (km) Brightness Sun altitude
Rises 18:13:21 0° 225° (SW) 2,523 5.4 -14.6°
Reaches altitude 10° 18:16:47 10° 193° (SSW) 1,645 3.6 -15.2°
Maximum altitude 18:18:12 12° 170° (S) 1,536 3.2 -15.5°
Drops below altitude 10° 18:19:38 10° 148° (SSE) 1,645 3.1 -15.8°
Enters shadow 18:20:23 - 138° (SE) 1,779 3.2 -15.9°
